| time (UTC) | temp F | wind direction | speed knots | gust knots | rain 1hr in | rain 24hr in | rain mn in | humidity % | barometer mb |
| 20260505041553 | 54 | 252 | 0.0 | 0.0 | 0.00 | 0.00 | 0.00 | 78 | 1008.0 |
| 20260505040051 | 57 | 83 | 0.0 | 2.6 | 0.00 | 0.00 | 0.00 | 64 | 1007.9 |
| 20260505034550 | 58 | 239 | 0.0 | 3.5 | 0.00 | 0.00 | 0.00 | 61 | 1007.4 |
| 20260505033050 | 56 | 236 | 0.0 | 0.9 | 0.00 | 0.00 | 0.00 | 69 | 1006.9 |
| 20260505031555 | 57 | 236 | 0.0 | 0.0 | 0.00 | 0.00 | 0.00 | 62 | 1006.5 |
| 20260505030050 | 59 | 235 | 0.0 | 0.9 | 0.00 | 0.00 | 0.00 | 58 | 1006.3 |
| 20260505024553 | 60 | 302 | 0.0 | 0.0 | 0.00 | 0.00 | 0.00 | 62 | 1006.2 |
| 20260505023048 | 60 | 302 | 0.0 | 0.0 | 0.00 | 0.00 | 0.00 | 56 | 1006.0 |
| 20260505021551 | 62 | 223 | 0.0 | 0.0 | 0.00 | 0.00 | 0.00 | 50 | 1005.9 |
| 20260505020052 | 64 | 150 | 0.0 | 3.5 | 0.00 | 0.00 | 0.00 | 43 | 1005.9 |
| 20260505014551 | 64 | 340 | 2.6 | 5.2 | 0.00 | 0.00 | 0.00 | 41 | 1005.8 |
| 20260505013045 | 65 | 57 | 0.9 | 5.2 | 0.00 | 0.00 | 0.00 | 41 | 1005.7 |
| 20260505011546 | 66 | 256 | 0.0 | 0.9 | 0.00 | 0.00 | 0.00 | 42 | 1005.6 |
| 20260505010058 | 67 | 63 | 1.7 | 6.1 | 0.00 | 0.00 | 0.00 | 37 | 1005.6 |
| 20260505004544 | 68 | 313 | 0.0 | 7.8 | 0.00 | 0.00 | 0.00 | 36 | 1005.6 |
| 20260505003044 | 68 | 260 | 0.0 | 4.3 | 0.00 | 0.00 | 0.00 | 34 | 1005.6 |
| 20260505001545 | 68 | 98 | 1.7 | 5.2 | 0.00 | 0.00 | 0.00 | 32 | 1005.7 |
| 20260505000046 | 69 | 321 | 0.9 | 5.2 | 0.00 | 0.00 | 0.00 | 29 | 1005.7 |
| 20260504234540 | 70 | 329 | 0.9 | 4.3 | 0.00 | 0.00 | 0.00 | 32 | 1005.6 |
| 20260504233059 | 70 | 338 | 0.9 | 6.1 | 0.00 | 0.00 | 0.00 | 30 | 1005.5 |
| 20260504231544 | 70 | 359 | 1.7 | 10.4 | 0.00 | 0.00 | 0.00 | 29 | 1005.6 |
| 20260504230050 | 71 | 329 | 1.7 | 5.2 | 0.00 | 0.00 | 0.00 | 30 | 1005.7 |
| 20260504224540 | 71 | 288 | 1.7 | 11.3 | 0.00 | 0.00 | 0.00 | 30 | 1005.6 |
| 20260504223038 | 71 | 304 | 0.9 | 6.1 | 0.00 | 0.00 | 0.00 | 30 | 1005.6 |
| 20260504221536 | 71 | 208 | 1.7 | 7.8 | 0.00 | 0.00 | 0.00 | 29 | 1005.7 |
| 20260504220036 | 71 | 46 | 0.9 | 5.2 | 0.00 | 0.00 | 0.00 | 30 | 1006.0 |
| 20260504214534 | 72 | 77 | 2.6 | 7.8 | 0.00 | 0.00 | 0.00 | 29 | 1006.0 |
| 20260504213034 | 73 | 25 | 0.9 | 7.8 | 0.00 | 0.00 | 0.00 | 27 | 1006.1 |
| 20260504211537 | 73 | 15 | 2.6 | 7.8 | 0.00 | 0.00 | 0.00 | 27 | 1006.2 |
| 20260504210035 | 73 | 150 | 0.9 | 7.0 | 0.00 | 0.00 | 0.00 | 27 | 1006.3 |
| 20260504204533 | 72 | 115 | 0.9 | 6.1 | 0.00 | 0.00 | 0.00 | 28 | 1006.3 |
| 20260504203048 | 73 | 127 | 0.9 | 6.1 | 0.00 | 0.00 | 0.00 | 28 | 1006.4 |
| 20260504201525 | 70 | 190 | 0.9 | 6.1 | 0.00 | 0.00 | 0.00 | 29 | 1006.3 |
| 20260504200025 | 70 | 93 | 1.7 | 6.1 | 0.00 | 0.00 | 0.00 | 28 | 1006.7 |
| 20260504194522 | 70 | 26 | 1.7 | 6.1 | 0.00 | 0.00 | 0.00 | 30 | 1006.7 |
| 20260504193022 | 70 | 56 | 1.7 | 11.3 | 0.00 | 0.00 | 0.00 | 29 | 1006.9 |
| 20260504191523 | 70 | 70 | 1.7 | 8.7 | 0.00 | 0.00 | 0.00 | 29 | 1007.0 |
| 20260504190016 | 70 | 73 | 1.7 | 5.2 | 0.00 | 0.00 | 0.00 | 27 | 1007.3 |
| 20260504184513 | 69 | 224 | 1.7 | 6.1 | 0.00 | 0.00 | 0.00 | 29 | 1007.4 |
| 20260504183011 | 69 | 283 | 0.9 | 6.1 | 0.00 | 0.00 | 0.00 | 28 | 1007.6 |
| 20260504181508 | 69 | 248 | 0.0 | 2.6 | 0.00 | 0.00 | 0.00 | 31 | 1007.6 |
| 20260504180007 | 68 | 116 | 0.0 | 2.6 | 0.00 | 0.00 | 0.00 | 33 | 1007.8 |
| 20260504174609 | 66 | 207 | 0.9 | 4.3 | 0.00 | 0.00 | 0.00 | 34 | 1008.0 |
| 20260504173100 | 65 | 102 | 0.0 | 2.6 | 0.00 | 0.00 | 0.00 | 39 | 1008.2 |
| 20260504171553 | 63 | 333 | 0.0 | 2.6 | 0.00 | 0.00 | 0.00 | 46 | 1008.3 |
| 20260504081528 | 35 | 314 | 0.0 | 0.0 | 0.00 | 0.00 | 0.00 | 92 | 1010.7 |
| 20260504050008 | 42 | 314 | 0.0 | 0.0 | 0.00 | 0.00 | 0.00 | 88 | 1010.7 |
| 20260504044509 | 43 | 314 | 0.0 | 0.0 | 0.00 | 0.00 | 0.00 | 87 | 1010.7 |
| 20260504043005 | 44 | 314 | 0.0 | 0.0 | 0.00 | 0.00 | 0.00 | 86 | 1010.6 |